time, Switch, Flow(0), Analog(2)
yyyy/mm/dd HH:MM:SS.fff, True=FILTERED|False=TOTAL, L/min, V
2023/07/06 05:00:02.224, True, 4.717, 0.152819
2023/07/06 05:00:02.728, True, 4.642, 0.153201
2023/07/06 05:00:03.232, True, 4.311, 0.155032
2023/07/06 05:00:03.728, True, 4.043, 0.153735
2023/07/06 05:00:04.232, True, 2.321, 0.153658
2023/07/06 05:00:04.736, True, 1.326, 0.154269
2023/07/06 05:00:05.232, True, 1.011, 0.156634
2023/07/06 05:00:05.736, True, 0.663, 0.153964
2023/07/06 05:00:06.240, True, 0.663, 0.153429
2023/07/06 05:00:06.736, True, 1.011, 0.152438
2023/07/06 05:00:07.240, True, 0.663, 0.153353
2023/07/06 05:00:07.744, True, 0.664, 0.154192
2023/07/06 05:00:08.248, True, 0.662, 0.152438
2023/07/06 05:00:08.744, True, 0.674, 0.153735
2023/07/06 05:00:09.248, True, 0.663, 0.152132
2023/07/06 05:00:09.744, True, 0.674, 0.155184
2023/07/06 05:00:10.248, True, 0.995, 0.153887
2023/07/06 05:00:10.752, True, 0.663, 0.155032
2023/07/06 05:00:11.257, True, 0.663, 0.151598
2023/07/06 05:00:11.752, True, 0.674, 0.153201
2023/07/06 05:00:12.256, True, 0.663, 0.153887
2023/07/06 05:00:12.760, True, 0.663, 0.153124
2023/07/06 05:00:13.256, True, 0.674, 0.154040
2023/07/06 05:00:13.760, True, 0.663, 0.154116
2023/07/06 05:00:14.264, True, 0.663, 0.152209
2023/07/06 05:00:14.760, True, 0.675, 0.154650
2023/07/06 05:00:15.264, True, 0.662, 0.153658
2023/07/06 05:00:15.760, True, 0.675, 0.153964
2023/07/06 05:00:16.265, True, 0.993, 0.152361
2023/07/06 05:00:16.768, True, 0.663, 0.154498
2023/07/06 05:00:17.272, True, 0.664, 0.151904
2023/07/06 05:00:17.769, True, 0.674, 0.154040
2023/07/06 05:00:18.272, True, 0.663, 0.153735
2023/07/06 05:00:18.776, True, 0.663, 0.152972
2023/07/06 05:00:19.272, True, 0.674, 0.155489
2023/07/06 05:00:19.776, True, 0.663, 0.153964
2023/07/06 05:00:20.281, True, 0.663, 0.154345
2023/07/06 05:00:20.776, True, 1.011, 0.154116
2023/07/06 05:00:21.280, True, 0.663, 0.155184
2023/07/06 05:00:21.784, True, 0.664, 0.155032
2023/07/06 05:00:22.281, True, 0.673, 0.154116
2023/07/06 05:00:22.784, True, 0.663, 0.151904
2023/07/06 05:00:23.289, True, 0.663, 0.152285
2023/07/06 05:00:23.784, True, 0.675, 0.153658
2023/07/06 05:00:24.288, True, 0.662, 0.155261
2023/07/06 05:00:24.784, True, 0.674, 0.153353
2023/07/06 05:00:25.289, True, 0.663, 0.153506
2023/07/06 05:00:25.792, True, 0.995, 0.152895
2023/07/06 05:00:26.297, True, 0.664, 0.151980
2023/07/06 05:00:26.792, True, 0.674, 0.152667
2023/07/06 05:00:27.296, True, 0.663, 0.154269
2023/07/06 05:00:27.800, True, 0.663, 0.150378
2023/07/06 05:00:28.296, True, 0.675, 0.152285
2023/07/06 05:00:28.800, True, 0.662, 0.153964
2023/07/06 05:00:29.304, True, 0.663, 0.152514
2023/07/06 05:00:29.800, True, 0.674, 0.153658
2023/07/06 05:00:30.305, True, 0.663, 0.152209
2023/07/06 05:00:30.808, True, 0.663, 0.153582
2023/07/06 05:00:31.305, True, 0.674, 0.154040
2023/07/06 05:00:31.808, True, 0.995, 0.154879
2023/07/06 05:00:32.312, True, 0.663, 0.154116
2023/07/06 05:00:32.808, True, 0.674, 0.152590
2023/07/06 05:00:33.312, True, 0.663, 0.154116
2023/07/06 05:00:33.816, True, 0.664, 0.152514
2023/07/06 05:00:34.312, True, 0.673, 0.153964
2023/07/06 05:00:34.816, True, 0.663, 0.153048
2023/07/06 05:00:35.320, True, 0.663, 0.152590
2023/07/06 05:00:35.816, True, 0.675, 0.153048
2023/07/06 05:00:36.321, True, 0.662, 0.154040
2023/07/06 05:00:36.825, True, 0.663, 0.152285
2023/07/06 05:00:37.321, True, 1.012, 0.154345
2023/07/06 05:00:37.824, True, 0.663, 0.155261
2023/07/06 05:00:38.328, True, 0.663, 0.153048
2023/07/06 05:00:38.825, True, 0.673, 0.154650
2023/07/06 05:00:39.328, True, 0.663, 0.155184
2023/07/06 05:00:39.833, True, 0.663, 0.155642
2023/07/06 05:00:40.329, True, 0.674, 0.151446
2023/07/06 05:00:40.832, True, 0.664, 0.154955
2023/07/06 05:00:41.336, True, 0.663, 0.153429
2023/07/06 05:00:41.832, True, 0.673, 0.155413
2023/07/06 05:00:42.337, True, 0.663, 0.153277
2023/07/06 05:00:42.840, True, 0.663, 0.153506
2023/07/06 05:00:43.345, True, 0.663, 0.151904
2023/07/06 05:00:43.840, True, 0.675, 0.153353
2023/07/06 05:00:44.345, True, 0.662, 0.153048
2023/07/06 05:00:44.848, True, 0.663, 0.153277
2023/07/06 05:00:45.344, True, 0.674, 0.155718
2023/07/06 05:00:45.849, True, 0.995, 0.153201
2023/07/06 05:00:46.352, True, 0.663, 0.153506
2023/07/06 05:00:46.849, True, 0.674, 0.152667
2023/07/06 05:00:47.352, True, 0.664, 0.151293
2023/07/06 05:00:47.857, True, 0.662, 0.154345
2023/07/06 05:00:48.352, True, 0.675, 0.155718
2023/07/06 05:00:48.857, True, 0.662, 0.154421
2023/07/06 05:00:49.352, True, 0.674, 0.153658
2023/07/06 05:00:49.857, True, 0.663, 0.154803
2023/07/06 05:00:50.361, True, 0.663, 0.155413
2023/07/06 05:00:50.856, True, 0.674, 0.152667
2023/07/06 05:00:51.361, True, 0.663, 0.154345
2023/07/06 05:00:51.864, True, 0.664, 0.151369
2023/07/06 05:00:52.361, True, 0.673, 0.154498
2023/07/06 05:00:52.865, True, 0.663, 0.153964
2023/07/06 05:00:53.369, True, 0.663, 0.153048
2023/07/06 05:00:53.872, True, 0.663, 0.154345
2023/07/06 05:00:54.369, True, 0.674, 0.152972
2023/07/06 05:00:54.872, True, 0.663, 0.153964
2023/07/06 05:00:55.376, True, 0.663, 0.153658
2023/07/06 05:00:55.872, True, 0.674, 0.153811
2023/07/06 05:00:56.376, True, 0.664, 0.154498
2023/07/06 05:00:56.880, True, 0.662, 0.152972
2023/07/06 05:00:57.376, True, 0.674, 0.154116
2023/07/06 05:00:57.880, True, 0.995, 0.151369
2023/07/06 05:00:58.384, True, 0.663, 0.153048
2023/07/06 05:00:58.880, True, 0.674, 0.153811
2023/07/06 05:00:59.384, True, 0.663, 0.153658
2023/07/06 05:00:59.889, True, 0.663, 0.150988
2023/07/06 05:01:00.384, True, 0.674, 0.153429
2023/07/06 05:01:00.888, True, 0.663, 0.151293
2023/07/06 05:01:01.392, True, 0.663, 0.151522
2023/07/06 05:01:01.888, True, 0.674, 0.153887
2023/07/06 05:01:02.392, True, 0.664, 0.152514
2023/07/06 05:01:02.896, True, 0.663, 0.153964
2023/07/06 05:01:03.392, True, 0.674, 0.153429
2023/07/06 05:01:03.896, True, 0.663, 0.152972
2023/07/06 05:01:04.400, True, 0.663, 0.152972
2023/07/06 05:01:04.904, True, 0.995, 0.153201
2023/07/06 05:01:05.401, True, 0.675, 0.152743
2023/07/06 05:01:05.904, True, 0.662, 0.152667
2023/07/06 05:01:06.408, True, 0.663, 0.153735
2023/07/06 05:01:06.904, True, 0.674, 0.155795
2023/07/06 05:01:07.408, True, 0.663, 0.153201
2023/07/06 05:01:07.912, True, 0.663, 0.154650
2023/07/06 05:01:08.409, True, 0.674, 0.155032
2023/07/06 05:01:08.912, True, 0.663, 0.154879
2023/07/06 05:01:09.409, True, 0.674, 0.153735
2023/07/06 05:01:09.912, True, 0.664, 0.153735
2023/07/06 05:01:10.416, True, 0.663, 0.153887
2023/07/06 05:01:10.921, True, 0.664, 0.153887
2023/07/06 05:01:11.417, True, 0.673, 0.153658
2023/07/06 05:01:11.921, True, 0.663, 0.151904
2023/07/06 05:01:12.424, True, 0.663, 0.154269
2023/07/06 05:01:12.920, True, 0.674, 0.153429
2023/07/06 05:01:13.425, True, 0.664, 0.152895
2023/07/06 05:01:13.929, True, 0.662, 0.153506
2023/07/06 05:01:14.424, True, 0.675, 0.156558
2023/07/06 05:01:14.928, True, 0.663, 0.155947
2023/07/06 05:01:15.432, True, 0.662, 0.154955
2023/07/06 05:01:15.929, True, 0.674, 0.151827
2023/07/06 05:01:16.432, True, 0.663, 0.154498
2023/07/06 05:01:16.937, True, 0.663, 0.153429
2023/07/06 05:01:17.432, True, 1.011, 0.153887
2023/07/06 05:01:17.937, True, 0.332, 0.155566
2023/07/06 05:01:18.440, True, 0.663, 0.154726
2023/07/06 05:01:18.935, True, 0.674, 0.154650
2023/07/06 05:01:19.441, True, 0.664, 0.155261
2023/07/06 05:01:19.945, True, 0.663, 0.154040
2023/07/06 05:01:20.441, True, 0.674, 0.152819
2023/07/06 05:01:20.945, True, 0.995, 0.152514
2023/07/06 05:01:21.448, True, 0.664, 0.154574
2023/07/06 05:01:21.952, True, 0.662, 0.154803
2023/07/06 05:01:22.449, True, 0.674, 0.156405
2023/07/06 05:01:22.952, True, 0.663, 0.156023
2023/07/06 05:01:23.456, True, 0.663, 0.154192
2023/07/06 05:01:23.952, True, 0.674, 0.154650
2023/07/06 05:01:24.457, True, 0.663, 0.155947
2023/07/06 05:01:24.961, True, 0.663, 0.155108
2023/07/06 05:01:25.465, True, 0.663, 0.156939
2023/07/06 05:01:25.961, True, 0.674, 0.156863
2023/07/06 05:01:26.464, True, 0.663, 0.157397
2023/07/06 05:01:26.969, True, 0.663, 0.156481
2023/07/06 05:01:27.464, True, 0.674, 0.154498
2023/07/06 05:01:27.968, True, 0.663, 0.158541
2023/07/06 05:01:28.472, True, 0.663, 0.156481
2023/07/06 05:01:28.969, True, 0.674, 0.155184
2023/07/06 05:01:29.472, True, 0.663, 0.157321
2023/07/06 05:01:29.977, True, 0.663, 0.158465
2023/07/06 05:01:30.481, True, 0.663, 0.158846
2023/07/06 05:01:30.976, True, 0.675, 0.157855
2023/07/06 05:01:31.480, True, 0.663, 0.157778
2023/07/06 05:01:31.985, True, 0.995, 0.158694
2023/07/06 05:01:32.480, True, 0.674, 0.159533
2023/07/06 05:01:32.985, True, 0.663, 0.157244
2023/07/06 05:01:33.489, True, 0.663, 0.158083
2023/07/06 05:01:33.985, True, 0.674, 0.157015
2023/07/06 05:01:34.489, True, 0.663, 0.158846
2023/07/06 05:01:34.992, True, 0.663, 0.158160
2023/07/06 05:01:35.489, True, 0.674, 0.161288
2023/07/06 05:01:35.992, True, 0.663, 0.158236
2023/07/06 05:01:36.488, True, 0.675, 0.159991
2023/07/06 05:01:36.993, True, 0.662, 0.158541
2023/07/06 05:01:37.497, True, 0.664, 0.158007
2023/07/06 05:01:37.992, True, 0.673, 0.159609
2023/07/06 05:01:38.497, True, 0.663, 0.159838
2023/07/06 05:01:39.000, True, 0.663, 0.160754
2023/07/06 05:01:39.505, True, 0.663, 0.161212
2023/07/06 05:01:40.001, True, 0.674, 0.160525
2023/07/06 05:01:40.505, True, 0.663, 0.159075
2023/07/06 05:01:41.009, True, 0.663, 0.159609
2023/07/06 05:01:41.505, True, 0.674, 0.157397
2023/07/06 05:01:42.009, True, 0.665, 0.158236
2023/07/06 05:01:42.512, True, 0.662, 0.159457
2023/07/06 05:01:43.009, True, 0.674, 0.160220
2023/07/06 05:01:43.512, True, 0.663, 0.160983
2023/07/06 05:01:44.016, True, 0.663, 0.160678
2023/07/06 05:01:44.512, True, 0.675, 0.159838
2023/07/06 05:01:45.016, True, 0.662, 0.158160
2023/07/06 05:01:45.512, True, 0.674, 0.159075
2023/07/06 05:01:46.016, True, 0.663, 0.159304
2023/07/06 05:01:46.520, True, 0.663, 0.160983
2023/07/06 05:01:47.017, True, 0.674, 0.158999
2023/07/06 05:01:47.521, True, 0.663, 0.160678
2023/07/06 05:01:48.024, True, 0.663, 0.159380
2023/07/06 05:01:48.529, True, 0.663, 0.160296
2023/07/06 05:01:49.025, True, 0.674, 0.160678
2023/07/06 05:01:49.528, True, 0.663, 0.162737
2023/07/06 05:01:50.032, True, 0.664, 0.161288
2023/07/06 05:01:50.529, True, 0.674, 0.158999
2023/07/06 05:01:51.033, True, 0.663, 0.158236
2023/07/06 05:01:51.536, True, 0.663, 0.158694
2023/07/06 05:01:52.032, True, 0.674, 0.160830
2023/07/06 05:01:52.537, True, 0.663, 0.161135
2023/07/06 05:01:53.040, True, 0.663, 0.161135
2023/07/06 05:01:53.537, True, 0.674, 0.162127
2023/07/06 05:01:54.041, True, 0.663, 0.162890
2023/07/06 05:01:54.545, True, 0.663, 0.161212
2023/07/06 05:01:55.041, True, 0.674, 0.161288
2023/07/06 05:01:55.545, True, 0.663, 0.160601
2023/07/06 05:01:56.048, True, 0.663, 0.161669
2023/07/06 05:01:56.544, True, 0.674, 0.160525
2023/07/06 05:01:57.048, True, 0.664, 0.160906
2023/07/06 05:01:57.552, True, 0.662, 0.160601
2023/07/06 05:01:58.056, True, 0.663, 0.160067
2023/07/06 05:01:58.552, True, 0.675, 0.163043
2023/07/06 05:01:59.057, True, 0.663, 0.160983
2023/07/06 05:01:59.561, True, 0.662, 0.160754
2023/07/06 05:02:00.065, True, 0.663, 0.160601
2023/07/06 05:02:00.561, True, 0.674, 0.162280
2023/07/06 05:02:01.065, True, 0.663, 0.163424
2023/07/06 05:02:01.569, True, 0.663, 0.161440
2023/07/06 05:02:02.065, True, 0.674, 0.159152
2023/07/06 05:02:02.569, True, 0.663, 0.161746
2023/07/06 05:02:03.072, True, 0.663, 0.161135
2023/07/06 05:02:03.569, True, 0.674, 0.160754
2023/07/06 05:02:04.072, True, 0.663, 0.161364
2023/07/06 05:02:04.577, True, 0.663, 0.160678
2023/07/06 05:02:05.072, True, 0.674, 0.163272
2023/07/06 05:02:05.577, True, 0.663, 0.160754
2023/07/06 05:02:06.080, True, 0.663, 0.160067
2023/07/06 05:02:06.576, True, 0.674, 0.160754
2023/07/06 05:02:07.081, True, 0.663, 0.159152
2023/07/06 05:02:07.585, True, 0.663, 0.160906
2023/07/06 05:02:08.081, True, 0.674, 0.158923
2023/07/06 05:02:08.585, True, 0.663, 0.159152
2023/07/06 05:02:09.089, True, 0.663, 0.159991
2023/07/06 05:02:09.592, True, 0.663, 0.160372
2023/07/06 05:02:10.089, True, 0.674, 0.160754
2023/07/06 05:02:10.592, True, 0.663, 0.161517
2023/07/06 05:02:11.096, True, 0.664, 0.161364
2023/07/06 05:02:11.592, True, 1.009, 0.160983
2023/07/06 05:02:12.097, True, 0.663, 0.160983
2023/07/06 05:02:12.601, True, 0.663, 0.160983
2023/07/06 05:02:13.097, True, 0.674, 0.160601
2023/07/06 05:02:13.601, True, 0.663, 0.159838
2023/07/06 05:02:14.105, True, 0.663, 0.162737
2023/07/06 05:02:14.609, True, 0.663, 0.162203
2023/07/06 05:02:15.105, True, 0.674, 0.161975
2023/07/06 05:02:15.608, True, 0.663, 0.161135
2023/07/06 05:02:16.112, True, 0.663, 0.159991
2023/07/06 05:02:16.609, True, 0.674, 0.162356
2023/07/06 05:02:17.112, True, 0.663, 0.159838
2023/07/06 05:02:17.617, True, 0.663, 0.161593
2023/07/06 05:02:18.112, True, 0.674, 0.160220
2023/07/06 05:02:18.617, True, 0.663, 0.162432
2023/07/06 05:02:19.121, True, 0.663, 0.162280
2023/07/06 05:02:19.617, True, 0.674, 0.162127
2023/07/06 05:02:20.121, True, 0.663, 0.161593
2023/07/06 05:02:20.624, True, 0.663, 0.163424
2023/07/06 05:02:21.120, True, 0.674, 0.161593
2023/07/06 05:02:21.625, True, 0.663, 0.159609
2023/07/06 05:02:22.129, True, 0.663, 0.160449
2023/07/06 05:02:22.625, True, 0.674, 0.160983
2023/07/06 05:02:23.129, True, 0.663, 0.161746
2023/07/06 05:02:23.632, True, 0.663, 0.162051
2023/07/06 05:02:24.128, True, 0.674, 0.161975
2023/07/06 05:02:24.632, True, 0.663, 0.160067
2023/07/06 05:02:25.136, True, 0.663, 0.161288
2023/07/06 05:02:25.632, True, 0.674, 0.162051
2023/07/06 05:02:26.136, True, 0.664, 0.161746
2023/07/06 05:02:26.641, True, 0.663, 0.161212
2023/07/06 05:02:27.136, True, 0.674, 0.159762
2023/07/06 05:02:27.640, True, 0.663, 0.159686
2023/07/06 05:02:28.145, True, 0.665, 0.161669
2023/07/06 05:02:28.640, True, 0.673, 0.161898
2023/07/06 05:02:29.144, True, 0.663, 0.160678
2023/07/06 05:02:29.648, True, 0.664, 0.161059
2023/07/06 05:02:30.144, True, 0.674, 0.160296
2023/07/06 05:02:30.648, True, 0.663, 0.160983
2023/07/06 05:02:31.152, True, 0.663, 0.160220
2023/07/06 05:02:31.649, True, 0.674, 0.162356
2023/07/06 05:02:32.152, True, 0.663, 0.163272
2023/07/06 05:02:32.657, True, 0.663, 0.162280
2023/07/06 05:02:33.152, True, 0.674, 0.161593
2023/07/06 05:02:33.657, True, 0.663, 0.160906
2023/07/06 05:02:34.161, True, 0.663, 0.163348
2023/07/06 05:02:34.657, True, 0.674, 0.163424
2023/07/06 05:02:35.160, True, 0.663, 0.162280
2023/07/06 05:02:35.665, True, 0.663, 0.162585
2023/07/06 05:02:36.161, True, 0.674, 0.161593
2023/07/06 05:02:36.665, True, 0.663, 0.162203
2023/07/06 05:02:37.169, True, 0.663, 0.161822
2023/07/06 05:02:37.665, True, 0.674, 0.162814
2023/07/06 05:02:38.168, True, 0.663, 0.161288
2023/07/06 05:02:38.672, True, 0.662, 0.161669
2023/07/06 05:02:39.169, True, 0.675, 0.161364
2023/07/06 05:02:39.672, True, 0.662, 0.162280
2023/07/06 05:02:40.177, True, 0.664, 0.162280
2023/07/06 05:02:40.672, True, 0.673, 0.161212
2023/07/06 05:02:41.176, True, 0.332, 0.161975
2023/07/06 05:02:41.681, True, 0.664, 0.162432
2023/07/06 05:02:42.177, True, 0.675, 0.163195
2023/07/06 05:02:42.681, True, 0.662, 0.162356
2023/07/06 05:02:43.185, True, 0.664, 0.161669
2023/07/06 05:02:43.681, True, 0.674, 0.161898
2023/07/06 05:02:44.185, True, 0.663, 0.162203
2023/07/06 05:02:44.689, True, 0.663, 0.161288
2023/07/06 05:02:45.192, True, 0.663, 0.162890
2023/07/06 05:02:45.689, True, 0.674, 0.163882
2023/07/06 05:02:46.192, True, 0.663, 0.162509
2023/07/06 05:02:46.697, True, 0.664, 0.159915
2023/07/06 05:02:47.192, True, 0.673, 0.160220
2023/07/06 05:02:47.696, True, 0.663, 0.161059
2023/07/06 05:02:48.192, True, 0.675, 0.162280
2023/07/06 05:02:48.696, True, 0.662, 0.161898
2023/07/06 05:02:49.201, True, 0.663, 0.162432
2023/07/06 05:02:49.697, True, 0.674, 0.162203
2023/07/06 05:02:50.201, True, 0.663, 0.161898
2023/07/06 05:02:50.705, True, 0.663, 0.164950
2023/07/06 05:02:51.201, True, 0.674, 0.161898
2023/07/06 05:02:51.705, True, 0.663, 0.161669
2023/07/06 05:02:52.209, True, 0.663, 0.161212
2023/07/06 05:02:52.705, True, 0.675, 0.161364
2023/07/06 05:02:53.209, True, 0.662, 0.161898
2023/07/06 05:02:53.712, True, 0.663, 0.162127
2023/07/06 05:02:54.209, True, 0.674, 0.160754
2023/07/06 05:02:54.712, True, 0.664, 0.161364
2023/07/06 05:02:55.217, True, 0.331, 0.160830
2023/07/06 05:02:55.712, True, 0.673, 0.160220
2023/07/06 05:02:56.217, True, 0.663, 0.161135
2023/07/06 05:02:56.721, True, 0.663, 0.161059
2023/07/06 05:02:57.217, True, 0.675, 0.160830
2023/07/06 05:02:57.721, True, 0.663, 0.160830
2023/07/06 05:02:58.225, True, 0.663, 0.162661
2023/07/06 05:02:58.729, True, 0.664, 0.160830
2023/07/06 05:02:59.225, True, 0.673, 0.163348
2023/07/06 05:02:59.729, True, 0.663, 0.161669
2023/07/06 05:03:00.232, True, 0.664, 0.161822
2023/07/06 05:03:00.729, True, 0.673, 0.160906
2023/07/06 05:03:01.232, True, 0.663, 0.160449
2023/07/06 05:03:01.736, True, 0.663, 0.161440
2023/07/06 05:03:02.232, True, 0.674, 0.163424
2023/07/06 05:03:02.737, True, 0.663, 0.164416
2023/07/06 05:03:03.241, True, 0.663, 0.162432
2023/07/06 05:03:03.737, True, 0.674, 0.161746
2023/07/06 05:03:04.241, True, 0.663, 0.163348
2023/07/06 05:03:04.745, True, 0.663, 0.161669
2023/07/06 05:03:05.241, True, 0.674, 0.162661
2023/07/06 05:03:05.745, True, 0.663, 0.161822
2023/07/06 05:03:06.248, True, 0.663, 0.160906
2023/07/06 05:03:06.744, True, 0.675, 0.164340
2023/07/06 05:03:07.249, True, 0.662, 0.163577
2023/07/06 05:03:07.752, True, 0.663, 0.162127
2023/07/06 05:03:08.249, True, 0.674, 0.160754
2023/07/06 05:03:08.752, True, 0.663, 0.160296
2023/07/06 05:03:09.257, True, 0.663, 0.161822
2023/07/06 05:03:09.752, True, 0.674, 0.161135
2023/07/06 05:03:10.257, True, 0.663, 0.164263
2023/07/06 05:03:10.760, True, 0.663, 0.161440
2023/07/06 05:03:11.257, True, 0.674, 0.161822
2023/07/06 05:03:11.761, True, 0.663, 0.161898
2023/07/06 05:03:12.264, True, 0.663, 0.161517
2023/07/06 05:03:12.761, True, 0.674, 0.160067
2023/07/06 05:03:13.265, True, 0.663, 0.162280
2023/07/06 05:03:13.769, True, 0.663, 0.163500
2023/07/06 05:03:14.265, True, 0.674, 0.162509
2023/07/06 05:03:14.769, True, 0.663, 0.163272
2023/07/06 05:03:15.272, True, 0.663, 0.160754
2023/07/06 05:03:15.769, True, 0.674, 0.164340
2023/07/06 05:03:16.272, True, 0.663, 0.161517
2023/07/06 05:03:16.777, True, 0.332, 0.160754
2023/07/06 05:03:17.272, True, 0.673, 0.161746
2023/07/06 05:03:17.776, True, 0.664, 0.160296
2023/07/06 05:03:18.281, True, 0.663, 0.160525
2023/07/06 05:03:18.777, True, 0.674, 0.162203
2023/07/06 05:03:19.281, True, 0.663, 0.160754
2023/07/06 05:03:19.785, True, 0.663, 0.159762
2023/07/06 05:03:20.281, True, 0.674, 0.161059
2023/07/06 05:03:20.784, True, 0.663, 0.161288
2023/07/06 05:03:21.289, True, 0.663, 0.162356
2023/07/06 05:03:21.792, True, 0.663, 0.161212
2023/07/06 05:03:22.289, True, 0.674, 0.162127
2023/07/06 05:03:22.792, True, 0.663, 0.160601
2023/07/06 05:03:23.289, True, 0.674, 0.161288
2023/07/06 05:03:23.792, True, 0.663, 0.161593
2023/07/06 05:03:24.297, True, 0.663, 0.161059
2023/07/06 05:03:24.801, True, 0.663, 0.158236
2023/07/06 05:03:25.296, True, 0.674, 0.159609
2023/07/06 05:03:25.801, True, 0.663, 0.162203
2023/07/06 05:03:26.297, True, 0.674, 0.161288
2023/07/06 05:03:26.800, True, 0.663, 0.162737
2023/07/06 05:03:27.305, True, 0.663, 0.159304
2023/07/06 05:03:27.801, True, 0.674, 0.161669
2023/07/06 05:03:28.305, True, 0.663, 0.162509
2023/07/06 05:03:28.809, True, 0.663, 0.161822
2023/07/06 05:03:29.312, True, 0.663, 0.163653
2023/07/06 05:03:29.808, True, 0.674, 0.163806
2023/07/06 05:03:30.312, True, 0.663, 0.163424
2023/07/06 05:03:30.817, True, 0.663, 0.162127
2023/07/06 05:03:31.312, True, 0.674, 0.160830
2023/07/06 05:03:31.817, True, 0.664, 0.162966
2023/07/06 05:03:32.321, True, 0.662, 0.162661
2023/07/06 05:03:32.817, True, 0.674, 0.160906
2023/07/06 05:03:33.321, True, 0.663, 0.162661
2023/07/06 05:03:33.824, True, 0.663, 0.162509
2023/07/06 05:03:34.329, True, 0.663, 0.159991
2023/07/06 05:03:34.825, True, 0.674, 0.160449
2023/07/06 05:03:35.328, True, 0.663, 0.164111
2023/07/06 05:03:35.832, True, 0.663, 0.162509
2023/07/06 05:03:36.329, True, 0.337, 0.161059
2023/07/06 05:03:36.832, True, 0.663, 0.162814
2023/07/06 05:03:37.336, True, 0.663, 0.160983
2023/07/06 05:03:37.832, True, 0.674, 0.163577
2023/07/06 05:03:38.337, True, 0.663, 0.161288
2023/07/06 05:03:38.841, True, 0.663, 0.161593
2023/07/06 05:03:39.337, True, 0.674, 0.162051
2023/07/06 05:03:39.840, True, 0.332, 0.162356
2023/07/06 05:03:40.345, True, 0.663, 0.159686
2023/07/06 05:03:40.841, True, 0.674, 0.160830
2023/07/06 05:03:41.344, True, 0.663, 0.161822
2023/07/06 05:03:41.849, True, 0.664, 0.161669
2023/07/06 05:03:42.345, True, 0.673, 0.160830
2023/07/06 05:03:42.849, True, 0.663, 0.161746
2023/07/06 05:03:43.352, True, 0.663, 0.162432
2023/07/06 05:03:43.848, True, 0.674, 0.159838
2023/07/06 05:03:44.353, True, 0.663, 0.160296
2023/07/06 05:03:44.857, True, 0.664, 0.161746
2023/07/06 05:03:45.361, True, 0.663, 0.161898
2023/07/06 05:03:45.856, True, 0.674, 0.160830
2023/07/06 05:03:46.360, True, 0.664, 0.160754
2023/07/06 05:03:46.857, True, 0.673, 0.161593
2023/07/06 05:03:47.361, True, 0.663, 0.161746
2023/07/06 05:03:47.864, True, 0.663, 0.159533
2023/07/06 05:03:48.360, True, 0.674, 0.162432
2023/07/06 05:03:48.865, True, 0.332, 0.159228
2023/07/06 05:03:49.368, True, 0.663, 0.161517
2023/07/06 05:03:49.864, True, 0.674, 0.160830
2023/07/06 05:03:50.369, True, 0.663, 0.160830
2023/07/06 05:03:50.873, True, 0.663, 0.161440
2023/07/06 05:03:51.368, True, 0.674, 0.159915
2023/07/06 05:03:51.872, True, 0.664, 0.161440
2023/07/06 05:03:52.376, True, 0.662, 0.161517
2023/07/06 05:03:52.872, True, 0.673, 0.158694
2023/07/06 05:03:53.377, True, 0.663, 0.161440
2023/07/06 05:03:53.872, True, 0.674, 0.162203
2023/07/06 05:03:54.376, True, 0.663, 0.161975
2023/07/06 05:03:54.880, True, 0.663, 0.161135
2023/07/06 05:03:55.385, True, 0.663, 0.161669
2023/07/06 05:03:55.881, True, 0.674, 0.161364
2023/07/06 05:03:56.384, True, 0.663, 0.159380
2023/07/06 05:03:56.880, True, 0.674, 0.161288
2023/07/06 05:03:57.385, True, 0.663, 0.160372
2023/07/06 05:03:57.889, True, 0.665, 0.162280
2023/07/06 05:03:58.392, True, 0.331, 0.161898
2023/07/06 05:03:58.889, True, 0.674, 0.161059
2023/07/06 05:03:59.392, True, 0.664, 0.162509
2023/07/06 05:03:59.889, True, 0.674, 0.160830
2023/07/06 05:04:00.392, True, 0.662, 0.160143
2023/07/06 05:04:00.897, True, 0.664, 0.160678
2023/07/06 05:04:01.392, True, 0.674, 0.162509
2023/07/06 05:04:01.897, True, 0.663, 0.162051
2023/07/06 05:04:02.400, True, 0.664, 0.160678
2023/07/06 05:04:02.897, True, 0.674, 0.163043
2023/07/06 05:04:03.401, True, 0.662, 0.162356
2023/07/06 05:04:03.905, True, 0.663, 0.162966
2023/07/06 05:04:04.408, True, 0.664, 0.159762
2023/07/06 05:04:04.904, True, 0.674, 0.160601
2023/07/06 05:04:05.409, True, 0.331, 0.159686
2023/07/06 05:04:05.912, True, 0.995, 0.161669
2023/07/06 05:04:06.409, True, 0.338, 0.161669
2023/07/06 05:04:06.912, True, 0.662, 0.161135
2023/07/06 05:04:07.417, True, 0.995, 0.162280
2023/07/06 05:04:07.921, True, 0.331, 0.161440
2023/07/06 05:04:08.417, True, 0.674, 0.161440
2023/07/06 05:04:08.921, True, 0.663, 0.159838
2023/07/06 05:04:09.425, True, 0.995, 0.160678
2023/07/06 05:04:09.929, True, 0.663, 0.160525
2023/07/06 05:04:10.425, True, 0.674, 0.159457
2023/07/06 05:04:10.929, True, 0.332, 0.160906
2023/07/06 05:04:11.425, True, 0.674, 0.163577